Location: *
(43.4667°N, 11.6833°E)
Time: 06:54:26
(UTC+00:00)

SPOT 5 - Pass Details

Date: 19 July 2019
Orbit: 623 x 815 km, 98.3° (Epoch: 24 August)

Event Time Altitude Azimuth Distance (km) Brightness Sun altitude
Exits shadow 19:45:03 10° 115° (ESE) 2,260 4.8 -9.1°
Maximum altitude 19:48:50 23° 65° (ENE) 1,541 4.4 -9.6°
Drops below altitude 10° 19:52:36 10° 14° (NNE) 2,209 5.8 -10.1°
Sets 19:55:12 0° 0° (N) 3,097 6.8 -10.5°
